DW6368 Weather Reports


Display with metric or nautical units.
time (UTC)temp
F
wind
direction
speed
MPH
gust
MPH
rain 1hr
in
rain 24hr
in
rain mn
in
humidity
%
barometer
mb
20260503021802 66 228 3.0 7.0 0.00 0.00 0.00 79 1009.8
20260503015803 68 235 3.0 7.0 0.00 0.00 0.00 76 1009.5
20260503014802 68 224 3.0 10.0 0.00 0.00 0.00 75 1009.6
20260503012803 70 226 3.0 7.0 0.00 0.00 0.00 72 1009.5
20260503011802 71 207 3.0 7.0 0.00 0.00 0.00 71 1009.4
20260503005803 72 220 4.0 11.0 0.00 0.00 0.00 68 1009.4
20260503004803 73 198 4.0 11.0 0.00 0.00 0.00 67 1009.4
20260503002803 74 222 2.0 10.0 0.00 0.00 0.00 66 1009.4
20260503001824 75 215 2.0 9.0 0.00 0.00 0.00 66 1009.4
20260502235802 75 297 3.0 8.0 0.00 0.00 0.00 65 1009.4
20260502234803 75 284 4.0 9.0 0.00 0.00 0.00 64 1009.5
20260502232824 75 287 4.0 11.0 0.00 0.00 0.00 65 1009.7
20260502231803 76 288 4.0 9.0 0.00 0.00 0.00 64 1009.8
20260502225803 75 220 3.0 9.0 0.00 0.00 0.00 66 1009.8
20260502222802 74 224 3.0 10.0 0.00 0.00 0.00 69 1010.5
20260502221802 73 199 1.0 7.0 0.00 0.00 0.00 72 1010.9
20260502215802 72 220 5.0 13.0 0.00 0.00 0.00 72 1011.2
20260502214803 72 224 4.0 12.0 0.00 0.00 0.00 72 1011.4
20260502212802 72 208 3.0 11.0 0.00 0.00 0.00 74 1011.6
20260502211803 72 222 5.0 12.0 0.00 0.00 0.00 73 1012.0
20260502205802 72 218 3.0 9.0 0.00 0.00 0.00 74 1012.0
20260502204803 72 217 4.0 10.0 0.00 0.00 0.00 74 1012.2
20260502202803 72 219 3.0 8.0 0.00 0.00 0.00 74 1012.2
20260502201802 71 187 2.0 10.0 0.00 0.00 0.00 76 1012.3
20260502195802 71 238 3.0 6.0 0.00 0.00 0.00 76 1012.5
20260502194845 70 244 4.0 7.0 0.00 0.00 0.00 77 1012.8
20260502192803 69 229 2.0 6.0 0.00 0.00 0.00 79 1012.8
20260502191803 68 233 2.0 7.0 0.00 0.00 0.00 80 1013.0
20260502185803 67 231 3.0 9.0 0.00 0.00 0.00 82 1013.2
20260502184824 67 252 2.0 4.0 0.00 0.00 0.00 83 1013.4
20260502182802 65 72 2.0 3.0 0.00 0.00 0.00 84 1013.5
20260502181803 65 129 2.0 4.0 0.00 0.00 0.00 85 1013.4
20260502162803 62 263 2.0 3.0 0.00 0.00 0.00 92 1014.2
20260502161803 61 204 1.0 5.0 0.00 0.00 0.00 93 1014.2
20260502151803 60 52 0.0 2.0 0.00 0.00 0.00 95 1014.1
20260502122803 60 226 2.0 5.0 0.00 0.00 0.00 94 1013.0
20260502121845 60 243 3.0 5.0 0.00 0.00 0.00 94 1012.9
20260502115803 60 298 1.0 2.0 0.00 0.00 0.00 94 1012.7
20260502114803 60 263 0.0 2.0 0.00 0.00 0.00 94 1012.7
20260502112803 59 289 2.0 3.0 0.00 0.00 0.00 94 1012.6
20260502105802 59 298 0.0 2.0 0.00 0.00 0.00 95 1012.7
20260502104824 59 307 1.0 3.0 0.00 0.00 0.00 96 1012.4
20260502102803 58 299 1.0 2.0 0.00 0.00 0.00 97 1012.4
20260502101824 58 339 1.0 2.0 0.00 0.00 0.00 97 1012.3
20260502065804 59 40 0.0 1.0 0.00 0.00 0.00 93 1013.3
20260502064803 59 21 0.0 2.0 0.00 0.00 0.00 92 1013.2
20260502062823 59 312 0.0 1.0 0.00 0.00 0.00 92 1013.0
20260502061824 60 356 0.0 1.0 0.00 0.00 0.00 91 1012.9
20260502055803 60 356 0.0 2.0 0.00 0.00 0.00 90 1012.8
20260502054802 61 42 1.0 2.0 0.00 0.00 0.00 90 1012.9
20260502052802 61 10 0.0 3.0 0.00 0.00 0.00 89 1013.1
20260502051802 61 311 1.0 3.0 0.00 0.00 0.00 89 1013.1
20260502045803 61 302 2.0 6.0 0.00 0.00 0.00 89 1013.0
20260502044803 62 294 3.0 6.0 0.00 0.00 0.00 89 1012.9
20260502042803 62 296 3.0 6.0 0.00 0.00 0.00 89 1012.6
20260502041803 62 314 1.0 6.0 0.00 0.00 0.00 88 1012.6
20260502035802 62 308 3.0 7.0 0.00 0.00 0.00 88 1012.3
20260502034803 62 298 3.0 6.0 0.00 0.00 0.00 88 1012.2
20260502032802 63 305 4.0 9.0 0.00 0.00 0.00 86 1011.8
20260502031803 63 301 4.0 7.0 0.00 0.00 0.00 86 1011.6
20260502025803 64 309 3.0 11.0 0.00 0.00 0.00 84 1011.6
20260502024803 64 300 4.0 11.0 0.00 0.00 0.00 83 1011.5
20260502022802 66 310 4.0 9.0 0.00 0.00 0.00 80 1011.3